This is the latest recevied weather packets stored in our database for station/object WD4IXD. If no packets are shown the sender has not sent any weather packets the latest 10 day(s).
| Time | Temp. | Humidity | Pressure | Rain* | Wind** | Luminosity | Snow |
|---|---|---|---|---|---|---|---|
| 1778183416 | 17.78° C | 40% | 1016.6 hPa | 0 mm | - | 1023 W/m² | - |
| 1778183104 | 17.78° C | 41% | 1016.5 hPa | 0 mm | - | 940 W/m² | - |
| 1778182815 | 17.22° C | 42% | 1016.6 hPa | 0 mm | - | 677 W/m² | - |
| 1778182504 | 17.22° C | 38% | 1016.7 hPa | 0 mm | - | 635 W/m² | - |
| 1778182215 | 17.22° C | 39% | 1016.7 hPa | 0 mm | - | 638 W/m² | - |
| 1778181915 | 16.67° C | 42% | 1016.6 hPa | 0 mm | - | 524 W/m² | - |
| 1778181604 | 16.67° C | 40% | 1016.6 hPa | 0 mm | - | 826 W/m² | - |
| 1778181315 | 16.67° C | 41% | 1016.8 hPa | 0 mm | - | 675 W/m² | - |
| 1778181015 | 16.67° C | 41% | 1016.8 hPa | 0 mm | - | 724 W/m² | - |
| 1778180704 | 16.67° C | 39% | 1016.9 hPa | 0 mm | - | 594 W/m² | - |
| 1778180404 | 16.67° C | 41% | 1016.9 hPa | 0 mm | - | 663 W/m² | - |
| 1778180114 | 16.11° C | 42% | 1016.9 hPa | 0 mm | - | 633 W/m² | - |
| 1778179804 | 16.11° C | 45% | 1016.9 hPa | 0 mm | - | 561 W/m² | - |
| 1778179515 | 15.56° C | 43% | 1016.9 hPa | 0 mm | - | 640 W/m² | - |
| 1778179204 | 15° C | 43% | 1017 hPa | 0 mm | - | 1088 W/m² | - |
| 1778178915 | 15° C | 41% | 1017 hPa | 0 mm | - | 1049 W/m² | - |
| 1778178604 | 15° C | 44% | 1017.1 hPa | 0 mm | - | 1153 W/m² | - |
| 1778178304 | 14.44° C | 45% | 1017.1 hPa | 0 mm | - | 1123 W/m² | - |
| 1778178015 | 14.44° C | 44% | 1017.2 hPa | 0 mm | - | 930 W/m² | - |
| 1778177704 | 13.89° C | 44% | 1017.2 hPa | 0 mm | - | 926 W/m² | - |
| 1778177415 | 13.89° C | 46% | 1017.2 hPa | 0 mm | - | 773 W/m² | - |
| 1778177104 | 13.89° C | 45% | 1017.2 hPa | 0 mm | - | 587 W/m² | - |
| 1778176815 | 13.89° C | 47% | 1017.3 hPa | 0 mm | - | 1072 W/m² | - |
| 1778176504 | 13.33° C | 46% | 1017.4 hPa | 0 mm | - | 571 W/m² | - |
| 1778176216 | 13.33° C | 48% | 1017.3 hPa | 0 mm | - | 715 W/m² | - |
* Rain latest hour (hover to see other rain measurements)
** Current wind speed in m/s (hover to see current wind gust speed)